K5WRW-WX Weather Reports


Display with metric or nautical units.
time (UTC)temp
F
wind
direction
speed
MPH
gust
MPH
rain 1hr
in
rain 24hr
in
rain mn
in
humidity
%
barometer
mb
20260508100116 57 0.0 0.0 0.00 0.00 0.00 85 1012.7
20260508095116 57 0 2.0 4.0 0.00 0.00 0.00 85 1012.7
20260508094116 58 0 1.0 3.0 0.00 0.00 0.00 85 1012.9
20260508093116 58 0 2.0 4.0 0.00 0.00 0.00 85 1012.8
20260508092116 58 0 3.0 4.0 0.00 0.00 0.00 84 1012.7
20260508091116 58 0 1.0 2.0 0.00 0.00 0.00 84 1013.0
20260508090117 58 0 1.0 2.0 0.00 0.00 0.00 84 1013.1
20260508085117 58 0 1.0 2.0 0.00 0.00 0.00 84 1013.1
20260508084136 58 0 2.0 3.0 0.00 0.00 0.00 84 1013.3
20260508083116 58 0 1.0 4.0 0.00 0.00 0.00 84 1013.3
20260508082116 58 0.0 3.0 0.00 0.00 0.00 84 1013.4
20260508081116 58 0 1.0 2.0 0.00 0.00 0.00 83 1013.5
20260508080116 59 0 1.0 2.0 0.00 0.00 0.00 83 1013.9
20260508075116 59 0 3.0 7.0 0.00 0.00 0.00 83 1013.9
20260508074116 59 0 2.0 6.0 0.00 0.00 0.00 83 1013.7
20260508073121 59 0 1.0 2.0 0.00 0.00 0.00 82 1013.8
20260508072116 59 0.0 2.0 0.00 0.00 0.00 82 1013.8
20260508071116 59 0 2.0 4.0 0.00 0.00 0.00 82 1014.1
20260508070116 60 0.0 1.0 0.00 0.00 0.00 81 1014.3
20260508065116 60 0.0 1.0 0.00 0.00 0.00 81 1014.5
20260508064116 60 0 1.0 3.0 0.00 0.00 0.00 80 1014.6
20260508063116 60 0 1.0 4.0 0.00 0.00 0.00 80 1014.6
20260508062116 61 0 3.0 4.0 0.00 0.00 0.00 79 1014.5
20260508061116 61 0 1.0 2.0 0.00 0.00 0.00 79 1014.4
20260508060116 61 0 1.0 4.0 0.00 0.00 0.00 80 1014.6
20260508055116 60 0 3.0 4.0 0.00 0.00 0.00 80 1014.7
20260508054116 60 0 4.0 5.0 0.00 0.00 0.00 80 1014.8
20260508053116 61 0 3.0 5.0 0.00 0.00 0.00 80 1014.7
20260508052116 61 0 4.0 7.0 0.00 0.00 0.00 80 1014.7
20260508051116 61 0 2.0 7.0 0.00 0.00 0.00 79 1014.7
20260508050116 61 180 2.0 2.0 0.00 0.00 0.00 79 1014.6
20260508045116 61 0 2.0 5.0 0.00 0.00 0.00 78 1014.6
20260508044116 61 180 2.0 4.0 0.00 0.00 0.00 77 1014.5
20260508043115 62 203 3.0 4.0 0.00 0.00 0.00 77 1014.7
20260508042116 62 0 4.0 8.0 0.00 0.00 0.00 76 1014.6
20260508041115 62 0 2.0 5.0 0.00 0.00 0.00 76 1014.5
20260508040115 62 0 3.0 6.0 0.00 0.00 0.00 76 1014.6
20260508035115 62 0 3.0 5.0 0.00 0.00 0.00 74 1014.6
20260508034115 63 0 4.0 7.0 0.00 0.00 0.00 73 1014.5
20260508033115 63 203 2.0 5.0 0.00 0.00 0.00 72 1014.4
20260508032116 63 0 3.0 6.0 0.00 0.00 0.00 70 1014.3
20260508031115 64 0 2.0 5.0 0.00 0.00 0.00 68 1014.4
20260508030116 65 0 2.0 5.0 0.00 0.00 0.00 66 1014.3
20260508025115 65 0 2.0 4.0 0.00 0.00 0.00 63 1014.2
20260508024115 66 0 3.0 5.0 0.00 0.00 0.00 62 1013.9
20260508023115 66 0 2.0 3.0 0.00 0.00 0.00 61 1013.9
20260508022115 66 135 1.0 2.0 0.00 0.00 0.00 61 1013.8
20260508021117 66 0 4.0 5.0 0.00 0.00 0.00 61 1013.7
20260508020117 67 0 3.0 5.0 0.00 0.00 0.00 60 1013.8
20260508015117 67 0 3.0 5.0 0.00 0.00 0.00 61 1013.7
20260508014117 67 0 3.0 4.0 0.00 0.00 0.00 60 1013.5
20260508013117 67 0 5.0 6.0 0.00 0.00 0.00 60 1013.5
20260508012117 68 0 4.0 6.0 0.00 0.00 0.00 59 1013.4
20260508011137 68 0 2.0 4.0 0.00 0.00 0.00 58 1013.3
20260508010117 69 135 2.0 4.0 0.00 0.00 0.00 56 1013.5
20260508005117 69 0 2.0 4.0 0.00 0.00 0.00 56 1013.6
20260508004117 70 0 2.0 4.0 0.00 0.00 0.00 55 1013.4
20260508003117 70 0 2.0 5.0 0.00 0.00 0.00 54 1013.4
20260508002117 71 0 5.0 7.0 0.00 0.00 0.00 51 1013.6
20260508001117 71 0 3.0 5.0 0.00 0.00 0.00 50 1013.4
20260508000117 72 0 2.0 4.0 0.00 0.00 0.00 48 1013.4
20260507235137 72 0 5.0 7.0 0.00 0.00 0.00 48 1013.5
20260507234117 72 0 5.0 7.0 0.00 0.00 0.00 48 1013.5
20260507233117 73 135 3.0 4.0 0.00 0.00 0.00 48 1013.6
20260507232117 73 158 2.0 4.0 0.00 0.00 0.00 46 1013.7
20260507231117 73 0 2.0 4.0 0.00 0.00 0.00 46 1013.8
20260507230117 74 0 4.0 6.0 0.00 0.00 0.00 46 1013.9
20260507225117 73 68 1.0 3.0 0.00 0.00 0.00 43 1013.8
20260507224117 73 90 5.0 6.0 0.00 0.00 0.00 43 1013.9
20260507223117 74 0 4.0 6.0 0.00 0.00 0.00 42 1014.0
20260507222117 73 248 2.0 2.0 0.00 0.00 0.00 41 1014.0
20260507221137 75 0 6.0 8.0 0.00 0.00 0.00 40 1014.2
20260507220117 74 293 3.0 4.0 0.00 0.00 0.00 42 1014.2
20260507215116 73 0.0 2.0 0.00 0.00 0.00 42 1014.3
20260507214116 73 0 1.0 3.0 0.00 0.00 0.00 42 1014.4
20260507213117 73 338 1.0 4.0 0.00 0.00 0.00 42 1014.4
20260507212116 74 315 3.0 7.0 0.00 0.00 0.00 42 1014.4
20260507211117 74 338 5.0 6.0 0.00 0.00 0.00 41 1014.4
20260507210116 73 0 1.0 5.0 0.00 0.00 0.00 41 1014.6
20260507205137 74 338 6.0 10.0 0.00 0.00 0.00 41 1014.6
20260507204116 73 338 5.0 8.0 0.00 0.00 0.00 43 1014.9
20260507203117 72 293 2.0 5.0 0.00 0.00 0.00 46 1014.9
20260507202116 73 68 7.0 9.0 0.00 0.00 0.00 47 1015.1
20260507201116 72 23 2.0 6.0 0.00 0.00 0.00 47 1015.3
20260507200116 72 90 1.0 2.0 0.00 0.00 0.00 47 1015.5
20260507195116 72 90 5.0 8.0 0.00 0.00 0.00 48 1015.4
20260507194116 71 248 1.0 3.0 0.00 0.00 0.00 47 1015.6
20260507193116 71 293 2.0 5.0 0.00 0.00 0.00 48 1015.9
20260507192117 70 338 3.0 5.0 0.00 0.00 0.00 48 1016.0
20260507191116 71 45 2.0 5.0 0.00 0.00 0.00 48 1016.1
20260507190116 70 315 2.0 4.0 0.00 0.00 0.00 51 1016.1
20260507185136 70 0 6.0 7.0 0.00 0.00 0.00 52 1016.2
20260507184116 69 0 4.0 5.0 0.00 0.00 0.00 53 1016.5
20260507183116 70 293 2.0 5.0 0.00 0.00 0.00 52 1016.6
20260507182116 69 248 1.0 2.0 0.00 0.00 0.00 52 1016.8
20260507181116 68 23 2.0 5.0 0.00 0.00 0.00 54 1017.2
20260507180116 67 270 6.0 8.0 0.00 0.00 0.00 54 1017.4
20260507175116 67 0.0 0.0 0.00 0.00 0.00 55 1017.5
20260507174116 66 338 1.0 4.0 0.00 0.00 0.00 56 1017.6
20260507173116 65 68 6.0 8.0 0.00 0.00 0.00 56 1017.8
20260507172116 66 135 4.0 5.0 0.00 0.00 0.00 56 1018.1
20260507171116 66 338 1.0 3.0 0.00 0.00 0.00 56 1018.1
20260507170116 66 0.0 1.0 0.00 0.00 0.00 57 1018.3
20260507165156 65 338 4.0 7.0 0.00 0.00 0.00 57 1018.5
20260507164116 65 45 1.0 4.0 0.00 0.00 0.00 57 1018.5
20260507163116 64 90 1.0 4.0 0.00 0.00 0.00 59 1018.5
20260507162116 65 45 4.0 6.0 0.00 0.00 0.00 59 1018.5
20260507161110 64 0 2.0 5.0 0.00 0.00 0.00 60 1018.6
20260507161036 64 0 4.0 6.0 0.00 0.00 0.00 60 1018.6
20260507160016 64 23 6.0 9.0 0.00 0.00 0.00 60 1018.8
20260507155016 63 0.0 1.0 0.00 0.00 0.00 62 1018.9
20260507154016 62 90 3.0 6.0 0.00 0.00 0.00 62 1018.9
20260507153016 63 68 2.0 4.0 0.00 0.00 0.00 62 1019.0
20260507152016 63 23 5.0 8.0 0.00 0.00 0.00 60 1019.0
20260507151016 63 0 5.0 8.0 0.00 0.00 0.00 63 1019.2
20260507150016 62 113 1.0 5.0 0.00 0.00 0.00 66 1019.3
20260507145016 61 0 3.0 7.0 0.00 0.00 0.00 68 1019.4
20260507144015 61 113 4.0 6.0 0.00 0.00 0.00 70 1019.4
20260507143015 60 23 4.0 5.0 0.00 0.00 0.00 69 1019.5
20260507142015 60 0 1.0 3.0 0.00 0.00 0.00 72 1019.5
20260507141015 59 0 2.0 6.0 0.00 0.00 0.00 72 1019.3
20260507140015 58 338 3.0 5.0 0.00 0.00 0.00 77 1019.5
20260507135015 58 338 1.0 2.0 0.00 0.00 0.00 78 1019.5
20260507134015 57 315 1.0 2.0 0.00 0.00 0.00 78 1019.4
20260507133015 57 0 2.0 4.0 0.00 0.00 0.00 80 1019.3
20260507132020 56 338 4.0 6.0 0.00 0.00 0.00 81 1019.5
20260507131016 55 0.0 1.0 0.00 0.00 0.00 83 1019.3
20260507130015 54 293 4.0 5.0 0.00 0.00 0.00 83 1019.4
20260507125015 54 315 5.0 7.0 0.00 0.00 0.00 82 1019.2
20260507124016 54 315 3.0 4.0 0.00 0.00 0.00 82 1019.3
20260507123035 53 315 3.0 5.0 0.00 0.00 0.00 81 1019.2
20260507122016 52 0.0 1.0 0.00 0.00 0.00 82 1019.0
20260507121015 51 0.0 0.0 0.00 0.00 0.00 83 1018.8
20260507120017 51 315 1.0 1.0 0.00 0.00 0.00 83 1018.5
20260507115017 50 315 1.0 2.0 0.00 0.00 0.00 83 1018.4
20260507114017 50 315 1.0 2.0 0.00 0.00 0.00 84 1018.2
20260507113015 50 315 1.0 2.0 0.00 0.00 0.00 84 1018.1
20260507112017 50 315 3.0 4.0 0.00 0.00 0.00 84 1017.9
20260507111037 50 315 3.0 5.0 0.00 0.00 0.00 85 1017.7
20260507110017 50 338 1.0 2.0 0.00 0.00 0.00 84 1017.5
20260507105037 50 338 2.0 3.0 0.00 0.00 0.00 85 1017.5
20260507104017 51 0 1.0 3.0 0.00 0.00 0.00 84 1017.3
20260507103037 51 338 2.0 4.0 0.00 0.00 0.00 84 1017.0
20260507102017 51 338 1.0 2.0 0.00 0.00 0.00 85 1016.9
20260507101017 51 0.0 1.0 0.00 0.00 0.00 85 1016.8